Mount Shasta, CA

2:53 PM PST on February 22, 2017 (GMT -0800)
Mount Shasta

Weather History for KMHS - October, 2013

Change the Weather History Date:

Saturday, October 5, 2013

  Actual Average Record
Temperature  
Mean Temperature 53 °F 55 °F  
Max Temperature 75 °F 72 °F 89 °F (1980)
Min Temperature 30 °F 39 °F 23 °F (1916)
Degree Days  
Heating Degree Days 12 10  
Month to date heating degree days 75 47  
Since 1 July heating degree days 252 284  
Cooling Degree Days 0 0  
Month to date cooling degree days 0 0  
Year to date cooling degree days 474 287  
Growing Degree Days 2 (Base 50)    
Moisture  
Dew Point 30 °F    
Average Humidity 51    
Maximum Humidity 76    
Minimum Humidity 22    
Precipitation  
Precipitation 0.00 in 0.03 in 0.80 in (1920)
Month to date precipitation T 0.15  
Year to date precipitation 8.89 28.15  
Snow  
Snow 0.00 in 0.00 in - ()
Month to date snowfall 0.0 0.0  
Year to date snowfall 0.0  
Snow Depth 0.00 in    
Sea Level Pressure  
Sea Level Pressure 30.35 in    
Wind  
Wind Speed 1 mph (ENE)    
Max Wind Speed 6 mph    
Max Gust Speed 9 mph    
Visibility 10 miles    
Events      
T = Trace of Precipitation, MM = Missing Value Source: NWS Daily Summary

Daily Weather History Graph

Daily Weather History Graph

Search for Another Location

Airport or City:

Trip Planner

Search our weather history database for the weather conditions in past years. The results will help you decide how hot, cold, wet, or windy it might be!

Date:

Astronomy

Oct. 05, 2013 Rise Set
Actual Time 7:10 AM PDT 6:43 PM PDT
Civil Twilight 6:42 AM PDT 7:11 PM PDT
Nautical Twilight 6:10 AM PDT 7:43 PM PDT
Astronomical Twilight 5:38 AM PDT 8:15 PM PDT
Moon 7:56 AM PDT (10/5) 7:05 PM PDT (10/5)
Length of Visible Light 12h 28m
Length of Day
11h 33m
New Moon, 1% of the Moon is Illuminated
Oct 5
New Moon
Oct 11
First Quarter
Oct 18
Full
Oct 26
Last Quarter
Nov 3
New

Hourly Weather History & Observations

Time (PDT) Temp. Windchill Dew Point Humidity Pressure Visibility Wind Dir Wind Speed Gust Speed Precip Events Conditions
12:56 AM 36.0 °F - 28.0 °F 73% 30.41 in 10.0 mi Calm Calm - N/A   Clear
1:56 AM 35.1 °F - 27.0 °F 72% 30.41 in 10.0 mi Calm Calm - N/A   Clear
2:56 AM 37.0 °F 33.3 °F 27.0 °F 67% 30.40 in 10.0 mi ENE 4.6 mph - N/A   Clear
3:56 AM 36.0 °F 33.3 °F 26.1 °F 67% 30.39 in 10.0 mi NE 3.5 mph - N/A   Clear
4:56 AM 35.1 °F - 26.1 °F 70% 30.39 in 10.0 mi Calm Calm - N/A   Clear
5:56 AM 32.0 °F - 25.0 °F 75% 30.40 in 10.0 mi Calm Calm - N/A   Clear
6:56 AM 32.0 °F - 25.0 °F 75% 30.43 in 10.0 mi Calm Calm - N/A   Clear
7:56 AM 33.1 °F - 25.0 °F 72% 30.44 in 10.0 mi Calm Calm - N/A   Clear
8:56 AM 44.1 °F - 28.0 °F 53% 30.43 in 10.0 mi Calm Calm - N/A   Clear
9:56 AM 55.0 °F - 28.0 °F 35% 30.41 in 10.0 mi Calm Calm - N/A   Clear
10:56 AM 57.9 °F - 27.0 °F 31% 30.40 in 10.0 mi Calm Calm - N/A   Clear
11:56 AM 63.0 °F - 28.0 °F 27% 30.38 in 10.0 mi Calm Calm - N/A   Clear
12:56 PM 68.0 °F - 30.9 °F 25% 30.34 in 10.0 mi Calm Calm - N/A   Clear
1:56 PM 71.1 °F - 33.1 °F 25% 30.31 in 10.0 mi Calm Calm - N/A   Clear
2:56 PM 73.0 °F - 34.0 °F 24% 30.28 in 10.0 mi Calm Calm - N/A   Clear
3:56 PM 73.9 °F - 32.0 °F 21% 30.27 in 10.0 mi Calm Calm - N/A   Clear
4:56 PM 71.1 °F - 30.9 °F 23% 30.27 in 10.0 mi Calm Calm - N/A   Clear
5:56 PM 66.9 °F - 34.0 °F 30% 30.28 in 10.0 mi Calm Calm - N/A   Clear
6:56 PM 57.0 °F - 39.0 °F 51% 30.30 in 10.0 mi Calm Calm - N/A   Clear
7:56 PM 52.0 °F - 37.9 °F 59% 30.31 in 10.0 mi Calm Calm - N/A   Clear
8:56 PM 50.0 °F - 35.1 °F 57% 30.30 in 10.0 mi Calm Calm - N/A   Clear
9:56 PM 46.9 °F - 32.0 °F 56% 30.29 in 10.0 mi ENE 3.5 mph - N/A   Clear
10:56 PM 45.0 °F - 32.0 °F 60% 30.28 in 10.0 mi Calm Calm - N/A   Clear
11:56 PM 39.0 °F - 32.0 °F 76% 30.28 in 10.0 mi Calm Calm - N/A   Clear